Simultaneous Nadir Overpasses (SNOs) Predictions

Prediction of SNOs between NOAA-19 and NPP Satellite Orbit:

Table of predicted SNOs for the next 14.0 days since TLE Epoch: 5/23/2014
Index Date (NOAA-19) Time (NOAA-19) Lat,Lon (NOAA-19) SZA (NOAA-19 ) Date (NPP) Time (NPP) Lat,Lon (NPP) SZA (NPP ) Distance(km) Time Diff (sec)
1 06/03/2014 05:00:41 -81.01,-129.11 117.47 06/03/2014 05:01:46 -81.01,-129.19 117.50 1.58 65
2 06/03/2014 05:51:47 81.00, 38.45 62.48 06/03/2014 05:52:30 81.00, 38.49 62.45 0.85 43
3 06/03/2014 06:42:44 -81.00,-154.38 117.52 06/03/2014 06:43:15 -81.00,-154.20 117.56 3.18 31
4 06/03/2014 07:33:50 81.00, 13.17 62.44 06/03/2014 07:34:00 81.00, 13.11 62.44 1.00 10
5 06/03/2014 08:24:47 -81.00,-179.66 117.56 06/03/2014 08:24:45 -81.00,-179.58 117.57 1.40 2
6 06/03/2014
